Regional Weather Roundup
Issued by NWS Little Rock, AR

Home | Current Version | Previous Version | Graphics & Text | Print | Product List | Glossary On
Versions: 1 2 3 4 5 6 7 8 9 10 11 12 13 14 15 16 17 18 19 20 21 22 23 24 25 26 27 28 29 30 31 32
000
ASUS44 KLZK 180012
RWRLZK

WEATHER ROUNDUP FOR ARKANSAS
NATIONAL WEATHER SERVICE LITTLE ROCK AR
700 PM CDT TUE OCT 17 2017

NOTE: "FAIR" INDICATES FEW OR NO CLOUDS BELOW 12,000 FEET WITH NO
SIGNIFICANT WEATHER AND/OR OBSTRUCTIONS TO VISIBILITY.

ARZ001-003-010-029-180100-
NORTHWEST ARKANSAS

CITY           SKY/WX    TMP DP  RH WIND       PRES   REMARKS
FAYETTEVILLE   CLEAR     57  44  62 S3        30.17F
6HR MIN TEMP:  56; 6HR MAX TEMP:  69;

FORT SMITH     CLEAR     64  46  52 E6        30.16S
6HR MIN TEMP:  64; 6HR MAX TEMP:  74;

HARRISON       CLEAR     61  38  42 S3        30.19S
6HR MIN TEMP:  61; 6HR MAX TEMP:  71;

BENTONVILLE    CLEAR     62  43  49 S3        30.18F
6HR MIN TEMP:  62; 6HR MAX TEMP:  69;

ROGERS         CLEAR     63  44  50 S5        30.18S
6HR MIN TEMP:  63; 6HR MAX TEMP:  70;

SILOAM SPGS    CLEAR     60  43  53 S6        30.17
6HR MIN TEMP:  60; 6HR MAX TEMP:  70;

HIGHFILL       CLEAR     61  44  53 S6        30.17F
6HR MIN TEMP:  61; 6HR MAX TEMP:  70;

SPRINGDALE     CLEAR     63  43  48 S5        30.18F
$$

ARZ004-005-016-180100-
NORTH CENTRAL ARKANSAS

CITY           SKY/WX    TMP DP  RH WIND       PRES   REMARKS
BATESVILLE     CLEAR     57  43  58 E6        30.22R
6HR MIN TEMP:  60; 6HR MAX TEMP:  70;

FLIPPIN        CLEAR     64  38  38 CALM      30.19S
6HR MIN TEMP:  64; 6HR MAX TEMP:  72;

MTN HOME       CLEAR     61  41  47 SE3       30.18S
6HR MIN TEMP:  59; 6HR MAX TEMP:  70;

$$

ARZ040-041-180100-
WEST CENTRAL ARKANSAS

CITY           SKY/WX    TMP DP  RH WIND       PRES   REMARKS
MENA           CLEAR     64  37  36 CALM      30.18S
$$

ARZ009-017-025-026-028-180100-
NORTHEAST ARKANSAS

CITY           SKY/WX    TMP DP  RH WIND       PRES   REMARKS
CORNING        FAIR      59  45  58 CALM      30.22S
JONESBORO      CLEAR     58  44  60 CALM      30.21S
6HR MIN TEMP:  58; 6HR MAX TEMP:  71;

NEWPORT        HAZE      59  44  57 E5        30.21F VSB 1/4
6HR MIN TEMP:  59; 6HR MAX TEMP:  69;

WALNUT RIDGE   CLEAR     61  41  47 SE5       30.21S
6HR MIN TEMP:  61; 6HR MAX TEMP:  69;

BLYTHEVILLE    CLOUDY    60  45  57 CALM      30.23S
6HR MIN TEMP:  60; 6HR MAX TEMP:  70;

$$

ARZ022-023-033-042-044-180100-
CENTRAL ARKANSAS

CITY           SKY/WX    TMP DP  RH WIND       PRES   REMARKS
LITTLE ROCK    CLEAR     61  44  53 CALM      30.20S
6HR MIN TEMP:  61; 6HR MAX TEMP:  72;

N LITTLE ROCK    N/A     61  40  46 CALM      30.22S
6HR MIN TEMP:  61; 6HR MAX TEMP:  71;

JACKSONVILLE   CLEAR     58  46  63 CALM      30.19S
6HR MIN TEMP:  58; 6HR MAX TEMP:  73;

SEARCY         CLEAR     58  48  69 CALM      30.21S
6HR MIN TEMP:  58; 6HR MAX TEMP:  72;

HOT SPRINGS    CLEAR     68  39  34 E5        30.18S
6HR MIN TEMP:  67; 6HR MAX TEMP:  75;

RUSSELLVILLE   CLEAR     58  45  62 E3        30.18S
6HR MIN TEMP:  58; 6HR MAX TEMP:  71;

CLINTON        FAIR      57  50  77 CALM      30.20S
$$

ARZ036-180100-
EAST ARKANSAS

CITY           SKY/WX    TMP DP  RH WIND       PRES   REMARKS
WEST MEMPHIS   CLEAR     57  49  74 CALM      30.20S
6HR MIN TEMP:  57; 6HR MAX TEMP:  71;

$$

ARZ050-053-066-070-073-180100-
SOUTHWEST ARKANSAS

CITY           SKY/WX    TMP DP  RH WIND       PRES   REMARKS
ARKADELPHIA    FAIR      56  50  80 CALM      30.18S
6HR MIN TEMP:  56; 6HR MAX TEMP:  75;

CAMDEN         CLEAR     59  45  58 CALM      30.17S
TEXARKANA      CLEAR     58  41  53 CALM      30.17S
6HR MIN TEMP:  58; 6HR MAX TEMP:  73;

EL DORADO      CLEAR     61  47  59 CALM      30.18S
6HR MIN TEMP:  61; 6HR MAX TEMP:  74;

DE QUEEN       CLEAR     63  44  50 S3        30.15S
6HR MIN TEMP:  63; 6HR MAX TEMP:  74;

$$

ARZ056-057-069-180100-
SOUTHEAST ARKANSAS

CITY           SKY/WX    TMP DP  RH WIND       PRES   REMARKS
PINE BLUFF     CLEAR     62  38  40 NE5       30.19S
6HR MIN TEMP:  62; 6HR MAX TEMP:  74;

STUTTGART      CLEAR     63  45  51 NE5       30.20S
6HR MIN TEMP:  62; 6HR MAX TEMP:  72;

MONTICELLO     CLEAR     61  49  64 CALM      30.19S
6HR MIN TEMP:  61; 6HR MAX TEMP:  75;


$$






USA.gov is the U.S. government's official web portal to all federal, state and local government web resources and services.